Regional Weather Roundup
Issued by NWS

Home | Current Version | Previous Version | Text Only | Print | Product List | Glossary Off
Versions: 1 2 3 4 5 6 7 8 9 10 11 12 13 14 15 16 17 18 19 20 21 22 23 24 25 26 27 28 29 30 31 32 33 34 35 36 37 38 39 40 41 42 43 44 45 46 47 48 49 50

510
ASUS43 KLSX 280610
RWRMO

WEATHER SUMMARY FOR MISSOURI
NATIONAL WEATHER SERVICE SPRINGFIELD MO
100 AM CDT WED SEP 28 2016

NOTE: "FAIR" INDICATES FEW OR NO CLOUDS BELOW 12,000 FEET WITH NO
       SIGNIFICANT WEATHER AND/OR OBSTRUCTIONS TO VISIBILITY.
       CURRENT SKY AND/OR WEATHER CONDITIONS ARE NOT AVAILABLE FOR
       CHILLICOTHE AND FARMINGTON.

MOZ001>031-035>038-043-044-053-054-280700-
...NORTHERN AND WESTERN MISSOURI...

CITY           SKY/WX    TMP DP  RH WIND       PRES   REMARKS
KANSAS CTY INT CLEAR     62  53  72 SW6       29.86F
6HR MIN TEMP:  61; 6HR MAX TEMP:  73;

KANSAS C DTWN  CLEAR     62  58  86 SW5       29.86S
6HR MIN TEMP:  62; 6HR MAX TEMP:  76;

LEE`S SUMMIT   CLEAR     63  55  75 SW7       29.87S
6HR MIN TEMP:  63; 6HR MAX TEMP:  74;

ST JOSEPH      CLEAR     53  51  93 N3        29.87R
6HR MIN TEMP:  53; 6HR MAX TEMP:  70;

CHILLICOTHE      N/A     53  51  93 CALM      29.86S
6HR MIN TEMP:  53; 6HR MAX TEMP:  70;

KIRKSVILLE     CLEAR     56  48  74 W5        29.82F
6HR MIN TEMP:  53; 6HR MAX TEMP:  67;


$$
MOZ066>068-077>081-088>096-101>105-280700-
...SOUTHWEST MISSOURI...

CITY           SKY/WX    TMP DP  RH WIND       PRES   REMARKS
SPRINGFIELD    CLEAR     61  47  59 SW9       29.93S
6HR MIN TEMP:  59; 6HR MAX TEMP:  71;

JOPLIN         CLEAR     65  50  58 SW12      29.95S
6HR MIN TEMP:  64; 6HR MAX TEMP:  71;

BRANSON        CLEAR     61  48  63 SW6       29.97S

$$
MOZ032>034-039>042-045>050-055>058-069>072-280700-
...CENTRAL MISSOURI...

CITY           SKY/WX    TMP DP  RH WIND       PRES   REMARKS
COLUMBIA       CLEAR     62  55  77 W6        29.85F
6HR MIN TEMP:  60; 6HR MAX TEMP:  69;

JEFFERSON CITY CLEAR     61  54  77 CALM      29.85F
6HR MIN TEMP:  60; 6HR MAX TEMP:  74;

ROLLA          CLEAR     59  51  75 S12       29.87F
6HR MIN TEMP:  59; 6HR MAX TEMP:  65;

SEDALIA        CLEAR     64  55  72 SW13      29.86F
6HR MIN TEMP:  63; 6HR MAX TEMP:  75;

WHITEMAN AFB   CLEAR     63  58  82 SW10      29.85S
OSAGE BEACH    CLEAR     64  52  64 SW5       29.89S

$$
MOZ051-052-059>065-280700-
...EAST CENTRAL MISSOURI...

CITY           SKY/WX    TMP DP  RH WIND       PRES   REMARKS
ST LOUIS INTL  CLEAR     65  52  62 W7        29.83F
6HR MIN TEMP:  64; 6HR MAX TEMP:  76;

SPIRIT OF STL  CLEAR     62  55  77 SW8       29.83S
6HR MIN TEMP:  58; 6HR MAX TEMP:  70;

ST CHARLES     CLEAR     57  55  93 S3        29.81F
6HR MIN TEMP:  57; 6HR MAX TEMP:  72;


$$
MOZ072>076-082>087-097>100-106>115-280700-
...SOUTH CENTRAL AND SOUTHEAST MISSOURI...

CITY           SKY/WX    TMP DP  RH WIND       PRES   REMARKS
CAPE GIRARDEAU CLEAR     56  50  80 CALM      29.89S
6HR MIN TEMP:  56; 6HR MAX TEMP:  66;

FARMINGTON     CLEAR     64  51  62 W5        29.88F
6HR MIN TEMP:  57; 6HR MAX TEMP:  68;

POPLAR BLUFF   CLEAR     60  54  80 SW3       29.91S
6HR MIN TEMP:  60; 6HR MAX TEMP:  68;

WEST PLAINS    CLEAR     58  49  72 SW5       29.96S
6HR MIN TEMP:  58; 6HR MAX TEMP:  69;


$$




USA.gov is the U.S. government's official web portal to all federal, state and local government web resources and services.